Location: Abraham Lincoln Continuation High School
(33.9711°N, 117.3662°W)
Time: 04:23:03
(UTC+00:00)

Cosmos 1943 - Pass Details

Date: 21 September 2020
Orbit: 833 x 850 km, 71.0° (Epoch: 25 October)

Event Time Altitude Azimuth Distance (km) Brightness Sun altitude
Rises 02:04:17 0° 346° (NNW) 3,398 6.6 -4.2°
Reaches altitude 10° 02:06:52 10° 353° (N) 2,463 5.8 -4.7°
Maximum altitude 02:12:13 43° 65° (ENE) 1,172 3.6 -5.8°
Drops below altitude 10° 02:17:35 10° 136° (SE) 2,461 5.2 -6.9°
Sets 02:20:08 0° 143° (SE) 3,395 5.9 -7.5°
